Find Globalstar M026

NORAD ID: 25873 Int'l Des: 1999-041 Owner: GLOBT Country: US Constellation: globalstar operational
MEOCIRCULAR

Live Position

Loading 3D Globe...

About Globalstar M026

Description loading...

Upcoming Passes

Passes for default location (London). Set your location on the main map for personalized predictions.

Altitude History

Loading altitude history...

Two-Line Element Set

1 25873U 99041B 26104.59168105 -.00000116 00000-0 -19023-2 0 9993
2 25873 52.0003 217.5793 0001603 66.1328 306.8528 11.06842308181866
Epoch: Apr 14, 2026 • Age: 9 hours

Current Status

Altitude 2127.6 km
Velocity 6.85 km/s
Sub-Earth Point -3.49°S, 29.45°E
Launch Date Jul 25, 1999
Age 26.7 years
Type communications

Technical Details

Classification Payload
Mass 450.00 kg
Dry Mass 380.00 kg
Total Mass 450.00 kg
Length 1.50 m
Diameter 0.60 m
Span 12.00 m
Shape Box + 2 Pan
Manufacturer LOR
Bus Type LS-400
Phase Status In Orbit
Owner/State GLOBT/US

Most Searched